SL-12 DEB, 36882

Orbit data source: Space-Track

SL-12 DEB, 36882 is space debris in LEO originally from a launch on Tue, 10 Jan 1989 UTC launched from the Tyuratam Missile And Space Complex (TTMTR). Debris objects in space refer to the collection of defunct objects orbiting the Earth. Examples of debris include non-operational satellites, rocket bodies, and fragments generated from explosions, collisions, or faulty payload assembly.

Loading next visibility...
Identifier
36882, 1989-001V
Orbit
LEO
Country
Flag of CISCIS
Related business
Manufacturer
Unknown
Mission
Spacecraft
Bus & Motor
Unknown
Mass
Unknown
Launch date (UTC)
1989-01-10 (37 years ago)
Launch vehicle
Unknown
Launch site
Tyuratam Missile And Space Complex (TTMTR)
Object type
Payload
Rocket body
Debris
Shape & HBR
Unknown shape, 0.1 m
Radar Cross Section
Small (<0.1 m²)

Expand to show TLE details & history
Last TLE update: 6 hours ago

TLE from 6 hours ago
0 SL-12 DEB
1 36882U 89001V   25289.12757936  .00015403  00000-0  60342-1 0  9990
2 36882  64.8434 343.9575 1972909 108.6670 273.7736 10.18075131531314
Epoch: 2025-10-16T03:03Z
TLE epoch observation values (Epoch: 2025-10-16T03:03:42.856Z)
Latitude
-0.00007°
Longitude
-86.86286°
Altitude
2,845.743 km
Speed
6.49 km/s
True Right ascension
22h 55m 49s
True Declination
0° 00' 00"
Sunlit
Object was in full shadow at epoch
Visualization orbit readout
Latitude
Unknown
Longitude
Unknown
Altitude
Unknown
Speed
Unknown
Apparent Right ascension
Unknown
Apparent Declination
Unknown
Sunlit
N/A
Visualization observer readout
Local Sidereal Time
03:39:30
Azimuth
Unknown
Elevation
Unknown
Doppler factor
Unknown
Orbital elements
Apogee altitude
4,387.121 km
Perigee altitude
839.299 km
Semi-major axis
8,991.347 km
Eccentricity
0.19729
Inclination
64.8434°
RAAN
343.9575°
Arg. of periapsis
108.667°
True anomaly
251.42389°
Mean anomaly
273.7736°
Eccentric anomaly
262.56471°
Mean motion
2.54569 °/min
Orbital period
141.42 mins
BSTAR
0.060342
Loading maneuver chart data...
Computing Atmospheric mass density...
Loading historical data...
Loading historical data...
Loading historical data...
Loading historical data...
Loading historical data...
Loading historical data...
Loading historical data...

Documentation

Showing up to 5 results
|